Voltar ao catálogo

FENGYUN 1C DEB

LostPO
NORAD 31935·DEBRIS·🇨🇳 China

Lançado May 10, 1999 de Taiyuan Satellite Launch Center

Loading…

Próximas Passagens (próximas 24 horas)

TLE

ObsoletoSource: Space-Track

Época: Oct 10, 2022, 07:19 UTC

1 31935U 99025CML 22283.30510883  .00006126  00000-0  28217-2 0  9998
2 31935  99.7311 106.6558 0067798 214.0246 145.6570 14.20273398789360

Acompanhe FENGYUN 1C DEB em tempo real com AllMySat

Download on the App Store